GW6198 Weather Reports


Display with metric or nautical units.
time (UTC)temp
F
wind
direction
speed
MPH
gust
MPH
rain 1hr
in
rain 24hr
in
rain mn
in
humidity
%
barometer
mb
20260505102108 65 222 5.0 6.0 0.00 0.00 0.00 80 1009.0
20260505101606 65 239 4.0 6.0 0.00 0.00 0.00 79 1008.9
20260505101102 66 233 6.0 6.0 0.00 0.00 0.00 79 1008.8
20260505100559 66 244 6.0 10.0 0.00 0.00 0.00 78 1008.7
20260505100056 66 230 6.0 8.0 0.00 0.00 0.00 78 1008.7
20260505095552 66 233 7.0 8.0 0.00 0.00 0.00 78 1008.6
20260505095049 66 237 5.0 6.0 0.00 0.00 0.00 78 1008.6
20260505094545 67 242 5.0 8.0 0.00 0.00 0.00 77 1008.9
20260505094041 67 241 6.0 8.0 0.00 0.00 0.00 77 1008.5
20260505093538 67 237 6.0 8.0 0.00 0.00 0.00 76 1008.6
20260505093036 67 220 7.0 9.0 0.00 0.00 0.00 76 1008.5
20260505092533 68 200 2.0 7.0 0.00 0.00 0.00 75 1008.6
20260505092031 68 225 5.0 11.0 0.00 0.00 0.00 75 1008.5
20260505091527 68 209 6.0 10.0 0.00 0.00 0.00 75 1008.6
20260505091026 68 236 5.0 12.0 0.00 0.00 0.00 75 1008.4
20260505090524 68 195 5.0 12.0 0.00 0.00 0.00 75 1008.6
20260505090021 68 217 4.0 11.0 0.00 0.00 0.00 74 1008.6
20260505085519 68 235 9.0 12.0 0.00 0.00 0.00 74 1008.7
20260505085017 68 233 9.0 10.0 0.00 0.00 0.00 74 1008.6
20260505084515 68 230 9.0 11.0 0.00 0.00 0.00 74 1008.5
20260505084012 68 218 7.0 11.0 0.00 0.00 0.00 73 1008.7
20260505083509 68 186 5.0 8.0 0.00 0.00 0.00 73 1008.7
20260505083006 69 229 6.0 13.0 0.00 0.00 0.00 72 1008.8
20260505082502 69 202 5.0 11.0 0.00 0.00 0.00 72 1008.7
20260505081959 69 206 5.0 12.0 0.00 0.00 0.00 72 1008.7
20260505081455 69 221 8.0 13.0 0.00 0.00 0.00 71 1008.7
20260505080952 69 216 7.0 12.0 0.00 0.00 0.00 71 1008.5
20260505080448 69 217 5.0 16.0 0.00 0.00 0.00 71 1008.5
20260505075944 69 222 6.0 7.0 0.00 0.00 0.00 70 1008.7
20260505075440 69 206 6.0 9.0 0.00 0.00 0.00 70 1008.6
20260505074938 69 209 5.0 12.0 0.00 0.00 0.00 70 1008.8
20260505074436 70 192 5.0 11.0 0.00 0.00 0.00 69 1008.7
20260505073932 70 184 10.0 15.0 0.00 0.00 0.00 69 1009.1
20260505073430 70 230 9.0 11.0 0.00 0.00 0.00 69 1009.1
20260505072927 70 232 7.0 12.0 0.00 0.00 0.00 68 1009.0
20260505072423 70 222 6.0 14.0 0.00 0.00 0.00 68 1009.0
20260505071919 70 224 6.0 9.0 0.00 0.00 0.00 68 1009.0
20260505071415 70 219 4.0 9.0 0.00 0.00 0.00 67 1009.1
20260505070914 71 215 6.0 13.0 0.00 0.00 0.00 66 1009.0
20260505070409 71 233 10.0 14.0 0.00 0.00 0.00 65 1009.1
20260505065905 71 193 4.0 11.0 0.00 0.00 0.00 64 1009.1
20260505065402 71 217 5.0 13.0 0.00 0.00 0.00 64 1009.0
20260505064859 71 217 6.0 14.0 0.00 0.00 0.00 63 1009.2
20260505064356 72 200 8.0 11.0 0.00 0.00 0.00 63 1009.2
20260505063855 72 204 4.0 11.0 0.00 0.00 0.00 62 1009.0
20260505063355 72 212 7.0 15.0 0.00 0.00 0.00 62 1009.4
20260505062852 72 200 7.0 12.0 0.00 0.00 0.00 62 1009.3
20260505062349 72 237 10.0 14.0 0.00 0.00 0.00 61 1009.3
20260505061846 72 206 9.0 12.0 0.00 0.00 0.00 60 1009.3
20260505061344 72 201 7.0 11.0 0.00 0.00 0.00 60 1009.1
20260505060842 73 196 3.0 11.0 0.00 0.00 0.00 60 1009.2
20260505060338 73 229 6.0 7.0 0.00 0.00 0.00 59 1009.6
20260505055834 73 184 4.0 9.0 0.00 0.00 0.00 59 1009.6
20260505055330 73 193 8.0 14.0 0.00 0.00 0.00 58 1009.4
20260505054828 73 193 10.0 12.0 0.00 0.00 0.00 57 1009.6
20260505054325 73 209 8.0 11.0 0.00 0.00 0.00 57 1009.4
20260505053823 74 193 9.0 15.0 0.00 0.00 0.00 56 1009.4
20260505053320 73 212 13.0 16.0 0.00 0.00 0.00 56 1009.6
20260505052817 73 205 8.0 10.0 0.00 0.00 0.00 56 1009.7
20260505052313 73 212 6.0 11.0 0.00 0.00 0.00 55 1010.0
20260505051811 73 208 6.0 10.0 0.00 0.00 0.00 55 1009.8
20260505051308 73 218 9.0 13.0 0.00 0.00 0.00 54 1009.8
20260505050806 74 207 4.0 10.0 0.00 0.00 0.00 53 1009.8
20260505050304 74 200 9.0 10.0 0.00 0.00 0.00 53 1009.6
20260505041734 76 196 8.0 9.0 0.00 0.00 0.00 48 1009.3
20260505041231 76 197 9.0 9.0 0.00 0.00 0.00 48 1009.7
20260505040729 77 200 6.0 11.0 0.00 0.00 0.00 47 1009.6
20260505040226 77 190 8.0 10.0 0.00 0.00 0.00 46 1009.3
20260505035723 77 200 7.0 10.0 0.00 0.00 0.00 46 1009.3
20260505035219 78 191 8.0 16.0 0.00 0.00 0.00 45 1009.2
20260505034715 78 191 10.0 14.0 0.00 0.00 0.00 44 1009.6
20260505034212 79 200 11.0 14.0 0.00 0.00 0.00 43 1009.6
20260505033708 79 208 10.0 19.0 0.00 0.00 0.00 43 1009.6
20260505033207 79 200 14.0 22.0 0.00 0.00 0.00 43 1009.4
20260505032705 80 190 14.0 18.0 0.00 0.00 0.00 42 1009.1
20260505032200 79 190 14.0 24.0 0.00 0.00 0.00 42 1009.3
20260505031658 80 221 8.0 13.0 0.00 0.00 0.00 41 1009.1
20260505031154 80 205 12.0 16.0 0.00 0.00 0.00 38 1009.1
20260505030651 80 192 4.0 8.0 0.00 0.00 0.00 34 1009.0
20260505030147 80 205 6.0 13.0 0.00 0.00 0.00 34 1008.9
20260505025643 80 228 4.0 7.0 0.00 0.00 0.00 36 1008.9
20260505025142 80 226 5.0 12.0 0.00 0.00 0.00 35 1008.6
20260505024639 81 229 6.0 9.0 0.00 0.00 0.00 32 1008.7
20260505024136 83 197 5.0 12.0 0.00 0.00 0.00 28 1008.7
20260505023633 83 249 8.0 14.0 0.00 0.00 0.00 18 1008.6
20260505023130 83 259 13.0 14.0 0.00 0.00 0.00 18 1008.4
20260505022628 83 261 6.0 14.0 0.00 0.00 0.00 17 1008.2
20260505022125 84 239 13.0 15.0 0.00 0.00 0.00 17 1008.2
20260505021621 84 257 9.0 17.0 0.00 0.00 0.00 17 1008.4
20260505021118 84 265 7.0 16.0 0.00 0.00 0.00 17 1008.1
20260505020614 84 253 10.0 14.0 0.00 0.00 0.00 17 1007.9
20260505020110 84 268 9.0 17.0 0.00 0.00 0.00 17 1008.2
20260505015607 84 262 9.0 15.0 0.00 0.00 0.00 16 1008.0
20260505015104 84 253 12.0 16.0 0.00 0.00 0.00 16 1008.0
20260505014601 83 254 8.0 13.0 0.00 0.00 0.00 17 1008.2
20260505014058 83 245 8.0 12.0 0.00 0.00 0.00 18 1008.0
20260505013555 83 242 4.0 11.0 0.00 0.00 0.00 18 1007.7
20260505013052 83 238 5.0 9.0 0.00 0.00 0.00 17 1007.8
20260505012550 84 244 6.0 10.0 0.00 0.00 0.00 17 1007.7
20260505012047 85 236 9.0 11.0 0.00 0.00 0.00 16 1007.8
20260505011542 85 234 9.0 15.0 0.00 0.00 0.00 16 1007.7
20260505011040 85 232 10.0 13.0 0.00 0.00 0.00 17 1007.7
20260505010535 85 226 8.0 14.0 0.00 0.00 0.00 17 1007.7
20260505010032 86 239 10.0 11.0 0.00 0.00 0.00 16 1007.8
20260505005528 86 243 13.0 15.0 0.00 0.00 0.00 16 1007.8
20260505005026 87 240 9.0 17.0 0.00 0.00 0.00 16 1007.9
20260505004523 87 263 12.0 15.0 0.00 0.00 0.00 16 1007.7
20260505004020 87 258 12.0 19.0 0.00 0.00 0.00 15 1007.7
20260505003517 87 245 8.0 15.0 0.00 0.00 0.00 16 1007.8
20260505003014 87 259 7.0 13.0 0.00 0.00 0.00 16 1008.1
20260505002509 88 239 11.0 17.0 0.00 0.00 0.00 16 1007.9
20260505002008 88 242 10.0 18.0 0.00 0.00 0.00 16 1008.1
20260505001505 88 246 12.0 19.0 0.00 0.00 0.00 16 1008.2
20260505001002 88 245 15.0 18.0 0.00 0.00 0.00 16 1008.5
20260505000500 88 244 16.0 17.0 0.00 0.00 0.00 16 1008.4
20260504235956 88 255 20.0 20.0 0.00 0.00 0.00 16 1008.5
20260504235454 88 246 20.0 22.0 0.00 0.00 0.00 17 1008.4
20260504234950 87 252 14.0 18.0 0.00 0.00 0.00 18 1008.4
20260504234447 87 240 12.0 19.0 0.00 0.00 0.00 19 1008.4
20260504233944 87 250 7.0 10.0 0.00 0.00 0.00 20 1008.2
20260504233439 87 239 8.0 16.0 0.00 0.00 0.00 20 1008.5
20260504232937 87 236 8.0 15.0 0.00 0.00 0.00 20 1008.6
20260504232434 87 235 10.0 10.0 0.00 0.00 0.00 20 1008.5
20260504231931 87 239 6.0 15.0 0.00 0.00 0.00 20 1008.7
20260504231427 87 227 10.0 17.0 0.00 0.00 0.00 19 1008.7
20260504230923 87 239 14.0 21.0 0.00 0.00 0.00 19 1008.8
20260504230420 87 221 14.0 19.0 0.00 0.00 0.00 19 1008.8
20260504225920 87 248 15.0 18.0 0.00 0.00 0.00 18 1008.8
20260504225416 87 240 14.0 19.0 0.00 0.00 0.00 18 1009.1
20260504224913 87 249 16.0 19.0 0.00 0.00 0.00 18 1009.0
20260504224409 87 250 11.0 15.0 0.00 0.00 0.00 19 1009.3
20260504223907 88 254 15.0 24.0 0.00 0.00 0.00 18 1009.4
20260504223402 89 272 12.0 25.0 0.00 0.00 0.00 17 1009.3
20260504222858 89 238 15.0 27.0 0.00 0.00 0.00 16 1009.2
20260504222355 90 256 19.0 25.0 0.00 0.00 0.00 16 1009.0
20260504221854 90 274 17.0 25.0 0.00 0.00 0.00 15 1009.1
20260504221350 90 267 19.0 24.0 0.00 0.00 0.00 14 1009.2
20260504220848 89 254 11.0 26.0 0.00 0.00 0.00 14 1009.2
20260504220344 90 254 19.0 23.0 0.00 0.00 0.00 12 1009.0
20260504215841 89 236 11.0 19.0 0.00 0.00 0.00 13 1009.4
20260504215337 89 255 19.0 25.0 0.00 0.00 0.00 13 1009.3
20260504214834 89 262 16.0 24.0 0.00 0.00 0.00 15 1009.4
20260504214331 89 245 20.0 25.0 0.00 0.00 0.00 15 1009.6
20260504213828 89 241 15.0 18.0 0.00 0.00 0.00 17 1009.6
20260504213323 89 247 10.0 19.0 0.00 0.00 0.00 18 1009.6
20260504212821 89 274 14.0 19.0 0.00 0.00 0.00 19 1009.6
20260504212317 88 247 11.0 28.0 0.00 0.00 0.00 18 1009.8
20260504211815 88 234 16.0 22.0 0.00 0.00 0.00 19 1009.9
20260504211311 89 234 13.0 28.0 0.00 0.00 0.00 18 1010.1
20260504210808 89 257 12.0 21.0 0.00 0.00 0.00 19 1010.0
20260504210305 88 242 17.0 23.0 0.00 0.00 0.00 18 1010.1
20260504205803 88 240 17.0 24.0 0.00 0.00 0.00 19 1010.2
20260504205300 88 246 17.0 20.0 0.00 0.00 0.00 20 1010.2
20260504204758 88 249 12.0 19.0 0.00 0.00 0.00 21 1010.4
20260504204256 88 235 11.0 21.0 0.00 0.00 0.00 22 1010.4
20260504203755 88 246 17.0 19.0 0.00 0.00 0.00 23 1010.5
20260504203252 87 236 12.0 17.0 0.00 0.00 0.00 25 1010.6
20260504202752 87 247 11.0 21.0 0.00 0.00 0.00 25 1010.9
20260504202250 87 252 11.0 19.0 0.00 0.00 0.00 25 1010.7
20260504201747 87 237 13.0 19.0 0.00 0.00 0.00 25 1010.9
20260504201244 88 248 17.0 18.0 0.00 0.00 0.00 25 1010.9
20260504200742 87 259 8.0 15.0 0.00 0.00 0.00 26 1011.1
20260504200237 88 267 15.0 15.0 0.00 0.00 0.00 25 1011.1
20260504195734 87 258 12.0 19.0 0.00 0.00 0.00 26 1011.1
20260504195230 88 248 12.0 18.0 0.00 0.00 0.00 26 1011.4
20260504194727 88 228 16.0 20.0 0.00 0.00 0.00 26 1011.2
20260504194223 88 271 7.0 17.0 0.00 0.00 0.00 26 1011.4
20260504193720 87 280 8.0 17.0 0.00 0.00 0.00 25 1011.3
20260504193218 87 241 18.0 23.0 0.00 0.00 0.00 27 1011.4
20260504192716 87 252 13.0 15.0 0.00 0.00 0.00 28 1011.4
20260504192213 87 250 8.0 19.0 0.00 0.00 0.00 27 1011.5
20260504191712 86 267 9.0 20.0 0.00 0.00 0.00 31 1011.5
20260504191208 85 222 8.0 19.0 0.00 0.00 0.00 31 1011.6
20260504190703 85 244 9.0 15.0 0.00 0.00 0.00 32 1011.8
20260504190200 85 247 17.0 23.0 0.00 0.00 0.00 31 1011.9
20260504185657 85 253 11.0 19.0 0.00 0.00 0.00 32 1011.9
20260504185153 85 224 9.0 18.0 0.00 0.00 0.00 33 1012.0
20260504184649 85 265 8.0 24.0 0.00 0.00 0.00 33 1012.2
20260504184144 84 261 8.0 21.0 0.00 0.00 0.00 33 1012.3
20260504183642 85 253 15.0 18.0 0.00 0.00 0.00 34 1012.3
20260504183139 84 236 13.0 18.0 0.00 0.00 0.00 34 1012.4
20260504182637 83 246 14.0 19.0 0.00 0.00 0.00 35 1012.3
20260504182134 83 231 17.0 23.0 0.00 0.00 0.00 34 1012.5
20260504181631 83 239 11.0 16.0 0.00 0.00 0.00 35 1012.3
20260504181129 83 224 14.0 19.0 0.00 0.00 0.00 35 1012.5
20260504180628 83 243 17.0 20.0 0.00 0.00 0.00 34 1012.5
20260504180126 83 255 13.0 19.0 0.00 0.00 0.00 35 1012.6
20260504175623 83 244 16.0 22.0 0.00 0.00 0.00 35 1012.9
20260504175120 83 238 8.0 16.0 0.00 0.00 0.00 36 1013.0
20260504174618 83 238 15.0 20.0 0.00 0.00 0.00 34 1012.9
20260504174114 84 233 15.0 24.0 0.00 0.00 0.00 34 1013.0
20260504173611 84 243 11.0 14.0 0.00 0.00 0.00 34 1012.9
20260504173109 83 235 10.0 13.0 0.00 0.00 0.00 35 1013.1
20260504172605 83 233 6.0 15.0 0.00 0.00 0.00 36 1013.2
20260504172102 82 195 4.0 15.0 0.00 0.00 0.00 37 1013.2
20260504171558 81 228 10.0 14.0 0.00 0.00 0.00 38 1013.0
20260504171055 81 208 6.0 11.0 0.00 0.00 0.00 37 1013.2
20260504170551 80 229 9.0 13.0 0.00 0.00 0.00 39 1013.1
20260504150935 73 217 5.0 10.0 0.00 0.00 0.00 49 1013.5
20260504150432 72 228 7.0 11.0 0.00 0.00 0.00 51 1013.8
20260504140858 68 189 6.0 15.0 0.00 0.00 0.00 57 1013.9
20260504140354 67 198 7.0 11.0 0.00 0.00 0.00 57 1013.9
20260504130319 64 220 6.0 14.0 0.00 0.00 0.00 60 1013.2
20260504120243 63 189 6.0 9.0 0.00 0.00 0.00 61 1012.5
20260504110710 63 185 6.0 9.0 0.00 0.00 0.00 60 1012.4
20260504110206 63 195 7.0 10.0 0.00 0.00 0.00 60 1012.7